Chippewa, MI

2:38 AM EDT on May 26, 2018 (GMT -0400)
Chippewa County International

Weather History for KCIU - November, 2011

Change the Weather History Date:

Saturday, November 19, 2011

  Actual Average Record
Temperature  
Mean Temperature 40 °F -  
Max Temperature 46 °F 38 °F 53 °F (1991)
Min Temperature 33 °F 24 °F 3 °F (2014)
Degree Days  
Heating Degree Days 26    
Moisture  
Dew Point 32 °F    
Average Humidity 74    
Maximum Humidity 93    
Minimum Humidity 61    
Precipitation  
Precipitation 0.17 in - - ()
Sea Level Pressure  
Sea Level Pressure 29.77 in    
Wind  
Wind Speed 6 mph (South)    
Max Wind Speed 13 mph    
Max Gust Speed 23 mph    
Visibility 9 miles    
Events      
Averages and records for this station are not official NWS values.
T = Trace of Precipitation, MM = Missing Value Source: NWS Daily Summary

Daily Weather History Graph

Daily Weather History Graph

Search for Another Location

Airport or City:

Astronomy

Nov. 19, 2011 Rise Set
Actual Time 7:44 AM EST 5:01 PM EST
Civil Twilight 7:11 AM EST 5:34 PM EST
Nautical Twilight 6:34 AM EST 6:11 PM EST
Astronomical Twilight 5:58 AM EST 6:46 PM EST
Moon 12:42 AM EST (11/19) 1:37 PM EST (11/19)
Length of Visible Light 10h 23m
Length of Day
9h 17m
Last Quarter, 38% of the Moon is Illuminated
Nov 19
Last Quarter
Nov 25
New
Dec 2
First Quarter
Dec 10
Full
Dec 17
Last Quarter

Hourly Weather History & Observations

Time (EST) Temp. Windchill Dew Point Humidity Pressure Visibility Wind Dir Wind Speed Gust Speed Precip Events Conditions
12:15 AM 42.8 °F 38.0 °F 32.0 °F 66% 29.79 in 10.0 mi WSW 8.1 mph - N/A   Overcast
12:35 AM 42.8 °F 38.6 °F 32.0 °F 66% 29.80 in 10.0 mi WSW 6.9 mph - N/A   Overcast
12:55 AM 42.8 °F 40.1 °F 32.0 °F 66% 29.79 in 10.0 mi SW 4.6 mph - N/A   Overcast
1:15 AM 42.8 °F 40.1 °F 32.0 °F 66% 29.79 in 10.0 mi SSW 4.6 mph - N/A   Overcast
1:35 AM 42.8 °F 41.1 °F 30.2 °F 61% 29.79 in 10.0 mi SSW 3.5 mph - N/A   Overcast
1:55 AM 41.0 °F 37.1 °F 30.2 °F 65% 29.79 in 10.0 mi SE 5.8 mph - N/A   Overcast
2:15 AM 37.4 °F 32.8 °F 28.4 °F 70% 29.79 in 10.0 mi SE 5.8 mph - N/A   Overcast
2:35 AM 37.4 °F 34.9 °F 28.4 °F 70% 29.79 in 10.0 mi SE 3.5 mph - N/A   Mostly Cloudy
2:55 AM 37.4 °F 33.8 °F 28.4 °F 70% 29.80 in 10.0 mi SSE 4.6 mph - N/A   Mostly Cloudy
3:15 AM 35.6 °F 31.7 °F 28.4 °F 75% 29.79 in 10.0 mi SSE 4.6 mph - N/A   Overcast
3:35 AM 35.6 °F 30.7 °F 28.4 °F 75% 29.79 in 10.0 mi SE 5.8 mph - N/A   Mostly Cloudy
3:55 AM 35.6 °F 31.7 °F 28.4 °F 75% 29.79 in 10.0 mi SE 4.6 mph - N/A   Clear
4:55 AM 33.8 °F 26.4 °F 26.6 °F 75% 29.79 in 10.0 mi SE 9.2 mph - N/A   Scattered Clouds
5:15 AM 33.8 °F 26.4 °F 26.6 °F 75% 29.78 in 10.0 mi SSE 9.2 mph - N/A   Mostly Cloudy
5:35 AM 33.8 °F 26.4 °F 26.6 °F 75% 29.78 in 10.0 mi SE 9.2 mph - N/A   Clear
5:55 AM 33.8 °F 25.8 °F 26.6 °F 75% 29.78 in 10.0 mi SE 10.4 mph - N/A   Clear
6:15 AM 37.4 °F 30.3 °F 28.4 °F 70% 29.79 in 10.0 mi South 10.4 mph - N/A   Partly Cloudy
6:35 AM 37.4 °F 31.4 °F 28.4 °F 70% 29.80 in 10.0 mi South 8.1 mph - N/A   Mostly Cloudy
6:55 AM 37.4 °F 32.8 °F 28.4 °F 70% 29.81 in 10.0 mi SSE 5.8 mph - N/A   Overcast
7:15 AM 37.4 °F 32.1 °F 28.4 °F 70% 29.81 in 10.0 mi SSE 6.9 mph - N/A   Overcast
7:55 AM 37.4 °F 32.1 °F 28.4 °F 70% 29.82 in 10.0 mi SE 6.9 mph - N/A   Overcast
8:15 AM 37.4 °F 32.1 °F 28.4 °F 70% 29.82 in 10.0 mi SE 6.9 mph - N/A   Overcast
8:35 AM 37.4 °F 33.8 °F 28.4 °F 70% 29.82 in 10.0 mi SSE 4.6 mph - N/A   Overcast
8:55 AM 37.4 °F 34.9 °F 28.4 °F 70% 29.82 in 10.0 mi SSE 3.5 mph - N/A   Overcast
9:15 AM 37.4 °F 32.8 °F 30.2 °F 75% 29.82 in 10.0 mi SSE 5.8 mph - N/A   Overcast
9:35 AM 39.2 °F 34.2 °F 30.2 °F 70% 29.81 in 10.0 mi SE 6.9 mph - N/A   Overcast
9:55 AM 42.8 °F 38.6 °F 32.0 °F 66% 29.80 in 10.0 mi South 6.9 mph - N/A   Overcast
10:55 AM 44.6 °F 40.7 °F 32.0 °F 61% 29.81 in 10.0 mi SSW 6.9 mph - N/A   Mostly Cloudy
11:15 AM 44.6 °F 40.2 °F 33.8 °F 66% 29.81 in 10.0 mi South 8.1 mph - N/A   Clear
11:35 AM 46.4 °F 41.5 °F 33.8 °F 62% 29.80 in 10.0 mi South 10.4 mph 17.3 mph N/A   Clear
11:55 AM 46.4 °F 41.5 °F 33.8 °F 62% 29.80 in 10.0 mi SSW 10.4 mph 19.6 mph N/A   Scattered Clouds
12:15 PM 46.4 °F 41.9 °F 33.8 °F 62% 29.79 in 10.0 mi SSW 9.2 mph 17.3 mph N/A   Mostly Cloudy
12:35 PM 46.4 °F 41.1 °F 33.8 °F 62% 29.79 in 10.0 mi SW 11.5 mph 23.0 mph N/A   Overcast
12:55 PM 46.4 °F 40.7 °F 33.8 °F 62% 29.78 in 10.0 mi SW 12.7 mph 19.6 mph N/A   Overcast
1:15 PM 46.4 °F 41.9 °F 33.8 °F 62% 29.78 in 10.0 mi SSW 9.2 mph - N/A   Overcast
1:35 PM 44.6 °F 39.2 °F 33.8 °F 66% 29.77 in 10.0 mi SW 10.4 mph - N/A   Overcast
2:15 PM 44.6 °F 40.2 °F 33.8 °F 66% 29.77 in 10.0 mi SW 8.1 mph - N/A   Overcast
2:35 PM 44.6 °F 41.4 °F 33.8 °F 66% 29.77 in 10.0 mi SW 5.8 mph - N/A   Overcast
2:55 PM 44.6 °F 40.7 °F 33.8 °F 66% 29.77 in 10.0 mi WSW 6.9 mph - N/A   Overcast
3:15 PM 44.6 °F 40.7 °F 33.8 °F 66% 29.77 in 10.0 mi WSW 6.9 mph - N/A   Overcast
3:35 PM 44.6 °F 40.2 °F 33.8 °F 66% 29.78 in 10.0 mi WSW 8.1 mph - N/A   Overcast
4:35 PM 42.8 °F - 35.6 °F 76% 29.77 in 10.0 mi Calm Calm - N/A   Overcast
4:55 PM 42.8 °F - 35.6 °F 76% 29.76 in 10.0 mi Calm Calm - N/A   Overcast
5:15 PM 41.0 °F - 35.6 °F 81% 29.75 in 10.0 mi Calm Calm - N/A   Overcast
5:35 PM 39.2 °F - 35.6 °F 87% 29.75 in 10.0 mi Calm Calm - N/A   Overcast
5:55 PM 39.2 °F - 35.6 °F 87% 29.75 in 10.0 mi Calm Calm - N/A   Overcast
6:15 PM 39.2 °F 37.0 °F 35.6 °F 87% 29.75 in 7.0 mi ENE 3.5 mph - N/A   Overcast
6:35 PM 39.2 °F - 35.6 °F 87% 29.75 in 7.0 mi Calm Calm - 0.04 in   Overcast
6:55 PM 39.2 °F 37.0 °F 35.6 °F 87% 29.76 in 7.0 mi South 3.5 mph - N/A   Overcast
7:15 PM 39.2 °F 35.0 °F 35.6 °F 87% 29.75 in 8.0 mi SSE 5.8 mph - 0.03 in   Overcast
7:55 PM 39.2 °F 35.9 °F 33.8 °F 81% 29.73 in 10.0 mi South 4.6 mph - 0.06 in   Overcast
8:15 PM 37.4 °F 34.9 °F 33.8 °F 87% 29.72 in 7.0 mi SSE 3.5 mph - 0.01 in   Overcast
8:35 PM 37.4 °F - 33.8 °F 87% 29.72 in 9.0 mi Calm Calm - 0.02 in   Overcast
8:55 PM 37.4 °F - 33.8 °F 87% 29.72 in 8.0 mi Calm Calm - 0.03 in   Overcast
9:15 PM 37.4 °F - 35.6 °F 93% 29.71 in 7.0 mi Calm Calm - 0.01 in   Overcast
10:15 PM 37.4 °F 31.4 °F 33.8 °F 87% 29.70 in 3.0 mi North 8.1 mph - N/A   Overcast
10:35 PM 37.4 °F 30.8 °F 33.8 °F 87% 29.70 in 5.0 mi North 9.2 mph - N/A   Overcast
10:55 PM 37.4 °F 31.4 °F 33.8 °F 87% 29.70 in 3.0 mi North 8.1 mph - N/A   Overcast
11:15 PM 37.4 °F 32.1 °F 33.8 °F 87% 29.70 in 4.0 mi North 6.9 mph - N/A   Overcast
11:35 PM 35.6 °F 29.9 °F 33.8 °F 93% 29.70 in 3.0 mi NNW 6.9 mph - N/A   Overcast
11:55 PM 35.6 °F 30.7 °F 32.0 °F 87% 29.71 in 4.0 mi NW 5.8 mph - 0.03 in   Overcast